Location: Gadmen
(46.7373°N, 8.3522°E)
Time: 02:57:57
(UTC+00:00)

Daily predictions for brighter satellites

Satellite Brightness Start Highest point End
(mag) Time Altitude Azimuth Time Altitude Azimuth Time Altitude Azimuth
SL-16 R/B 4.1 01:04:18 28° NNW 01:04:18 28° NNW 01:07:01 10° NNW
ADEOS II 4.1 01:01:49 10° NNE 01:04:24 23° ENE 01:04:24 23° ENE
Cosmos 1697 Rocket 4.3 01:14:51 31° NE 01:14:51 31° NE 01:17:47 10° NNE
Cosmos 1980 Rocket 3.8 01:20:37 31° ENE 01:20:37 31° ENE 01:24:02 10° NE
Cosmos 2263 Rocket 3.8 01:16:26 10° N 01:21:24 30° NE 01:26:21 10° ESE
USA 234 4.2 01:19:36 10° E 01:25:41 43° NNE 01:28:11 31° NNW
SL-16 R/B 4.4 01:38:10 16° ESE 01:39:20 17° E 01:42:51 10° ENE
Resurs 1-4 Rocket 3.7 01:49:23 10° N 01:51:58 27° NNW 01:51:58 27° NNW
CZ-2D R/B 3.7 01:52:36 10° N 01:55:14 27° NNW 01:55:14 27° NNW
Nadezhda 3 Rocket 4.2 02:01:33 64° N 02:01:33 64° N 02:06:43 10° N
SJ 16-02 3.6 02:01:31 10° N 02:03:00 20° N 02:03:00 20° N
Gbstr 26 Del rocket 4.4 02:06:54 59° WNW 02:08:42 89° NNE 02:16:20 10° ESE
Lacrosse 5 2.8 02:13:50 42° N 02:13:50 42° N 02:17:44 10° NE
ATLAS 5 CENTAUR R/B 4.1 02:16:15 14° NNW 02:16:32 15° NNW 02:19:18 10° NNE
H-2A R/B 4.1 02:17:54 10° ESE 02:21:40 28° ENE 02:25:30 10° N
Cosmos 2278 3.9 02:23:24 62° NNW 02:23:24 62° NNW 02:28:27 10° NNE
ARIANE 5 R/B 2.6 02:20:41 10° NNE 02:25:30 71° ENE 02:25:30 71° ENE
IRS-P3 4.2 02:20:58 10° NNE 02:25:43 70° N 02:25:43 70° N
Meteor 1-14 Rocket 4.4 02:20:53 10° NNW 02:25:32 62° NNW 02:25:32 62° NNW
SL-4 R/B 3.6 02:27:59 33° ESE 02:27:59 33° ESE 02:31:28 10° ENE
CZ-2C R/B 4.3 02:29:17 10° NNE 02:32:41 33° E 02:32:41 33° E
USA 267 3.3 02:26:15 10° NE 02:32:48 70° SE 02:34:08 56° SSW
Cosmos 2369 4.5 02:33:24 40° NW 02:33:24 40° NW 02:38:15 10° NNE
USA 305 4.2 02:34:11 36° N 02:34:11 36° N 02:37:27 10° NE
NOSS 3-3 (A) 3.8 02:34:42 71° SSW 02:35:25 84° SE 02:42:06 10° NE
NOSS 3-3 (C) 3.8 02:34:50 71° SSW 02:35:32 83° SE 02:42:11 10° NE
IRS-1D 4.4 02:31:38 10° N 02:35:34 38° NW 02:35:34 38° NW
USA 306 4.1 02:38:23 36° N 02:38:23 36° N 02:41:49 10° NE
ADEOS II 2.9 02:41:21 10° N 02:45:20 37° NW 02:45:20 37° NW
Cosmos 990 Rocket 4.0 02:44:05 10° NNW 02:49:19 80° ENE 02:54:32 10° SSE
Cosmos 1339 Rocket 4.4 02:47:25 45° S 02:49:33 88° W 02:55:46 10° N
ATLAS 2AS CENTAUR R/B 3.5 02:42:25 10° NW 02:49:53 55° NE 02:56:44 10° ESE
IDEFIX/ARIANE 42P 2.5 02:44:57 10° NNE 02:50:16 89° W 02:51:13 61° SSW
Cosmos 921 Rocket 3.3 02:52:55 55° N 02:52:55 55° N 02:56:20 10° NNE
Cosmos 2360 Rocket 3.9 02:47:58 10° SSE 02:52:45 29° ESE 02:57:32 10° NE
BREEZE-M DEB (TANK) 4.5 02:51:06 41° SW 02:54:08 68° SSE 03:20:38 10° ENE
Cosmos 1697 Rocket 3.9 02:56:36 26° NW 02:56:39 26° NW 03:01:19 10° N
Cosmos 468 Rocket 4.1 02:57:17 44° S 02:58:56 75° ESE 03:04:13 10° NNE
Celestis-02/Orion 38 4.4 02:56:01 10° SSE 03:01:16 85° WSW 03:06:26 10° NNW
Cosmos 1980 Rocket 2.8 03:02:25 38° WNW 03:02:49 38° NW 03:08:07 10° NNE
Cosmos 2263 Rocket 2.2 03:00:07 10° NW 03:05:36 52° WSW 03:11:05 10° S
Cosmos 44 Rocket 4.5 03:03:33 23° SSE 03:05:55 37° ESE 03:10:22 10° NE
Meteor 1-11 Rocket 3.8 03:00:59 10° N 03:06:47 79° ENE 03:12:25 10° SSE
USA 307 4.1 03:06:10 31° NNW 03:06:55 33° N 03:10:48 10° NE
USA 234 3.2 03:01:47 10° ESE 03:08:19 86° NE 03:14:54 10° NW
Cosmos 1844 Rocket 3.8 03:04:50 10° NNW 03:10:14 44° NE 03:15:37 10° SE
USA 308 4.1 03:09:21 29° NW 03:10:16 33° N 03:14:09 10° NE
Cosmos 44 4.0 03:10:35 33° NW 03:10:45 33° NW 03:15:03 10° NNE
Cosmos 2322 Rocket 2.4 03:08:23 29° S 03:11:23 72° ESE 03:17:05 10° NNE
Meteor 1-4 Rocket 2.6 03:13:45 63° NNW 03:13:45 63° NNW 03:16:50 10° N
Meteor 1-27 Rocket 4.1 03:10:17 10° S 03:16:10 71° E 03:22:03 10° NNE
Cosmos 1666 2.5 03:12:51 10° N 03:16:42 88° W 03:18:11 35° S
Cosmos 1707 Rocket 3.6 03:14:39 26° S 03:17:00 74° E 03:21:22 10° NNE
CZ-2D R/B 3.8 03:13:33 10° N 03:17:38 47° WNW 03:17:38 47° WNW
Cosmos 1812 3.1 03:21:36 45° NW 03:21:36 45° NW 03:24:53 10° N
SL-16 R/B 2.1 03:20:04 33° SW 03:22:43 80° WNW 03:28:26 10° NNE
CZ-3B R/B 3.4 03:21:33 25° NW 03:23:22 39° N 03:33:34 10° ENE
COSMOS 2441 4.3 03:20:34 10° N 03:25:28 70° WNW 03:27:54 30° SSW
USA 276 2.4 03:25:21 55° NNW 03:25:43 60° NNE 03:28:54 10° E
Cosmos 1536 2.8 03:24:56 10° N 03:29:02 90° E 03:33:06 10° S
Cosmos 2173 Rocket 4.2 03:25:04 10° N 03:31:26 78° E 03:37:49 10° SSE
Cosmos 1733 Rocket 3.3 03:27:06 10° N 03:31:27 71° E 03:35:46 10° SSE
ATLAS CENTAUR R/B 3.9 03:21:13 10° WNW 03:31:46 48° NNE 03:35:58 10° E
Spot 4 Rocket 4.4 03:27:42 10° N 03:32:34 44° WNW 03:34:17 32° WSW
CZ-2C R/B 2.7 03:28:11 10° NNE 03:33:22 76° ESE 03:38:34 10° S
Cosmos 1898 Rocket 3.6 03:29:02 10° NNW 03:34:06 49° WSW 03:39:09 10° S
ASTEX 1 4.4 03:34:02 10° NNW 03:38:13 27° WNW 03:38:38 27° W
ALOS 4.0 03:34:10 10° NNE 03:38:26 34° E 03:42:41 10° SSE
CZ-4C R/B 3.9 03:33:21 10° NNW 03:40:03 47° NE 03:47:49 10° ESE
Cosmos 1869 Rocket 4.4 03:37:27 10° NNW 03:40:47 29° WNW 03:40:47 29° WNW
Cosmos 2219 Rocket 4.3 03:36:47 10° SSE 03:41:23 26° ESE 03:46:01 10° NE
Cosmos 858 Rocket 4.5 03:36:41 10° NNW 03:41:47 57° WSW 03:46:51 10° S
MSX 4.0 03:36:33 10° N 03:42:08 51° WNW 03:45:54 20° SW
Cosmos 967 Rocket 4.5 03:40:08 21° SW 03:44:41 79° NW 03:51:08 10° NNE
Landsat 5 4.0 03:42:39 10° S 03:46:55 42° W 03:51:10 10° NNW
PSLV R/B 3.4 03:42:58 10° N 03:47:10 74° WNW 03:50:59 12° SSW
Cosmos 2228 Rocket 4.4 03:48:01 22° WNW 03:48:04 22° WNW 03:51:31 10° NNW
Cosmos 1862 Rocket 3.6 03:47:18 10° S 03:51:40 84° E 03:56:03 10° N
CZ-4C R/B 4.1 03:55:01 25° W 03:55:01 25° W 03:57:30 10° NW
Cosmos 1937 Rocket 3.7 03:50:17 10° NW 03:55:08 43° WSW 03:59:58 10° S
Lacrosse 5 3.4 03:53:01 12° WNW 03:56:45 26° N 04:01:00 10° NE
H-2A R/B 2.7 03:53:31 10° SSW 03:57:31 34° W 04:01:37 10° NNW
X-37B 2.5 03:59:50 17° SSW 03:59:50 17° SSW 04:01:47 10° SSE
ERBS 3.9 03:58:34 18° WNW 03:59:58 23° NNW 04:02:45 10° NE
Cosmos 2208 Rocket 4.0 03:54:50 10° SSW 04:00:04 88° WNW 04:05:18 10° NNE
Cosmos 841 Rocket 3.5 03:56:30 10° SSW 04:01:41 70° WNW 04:06:58 10° NNE
USA 32 4.4 03:57:33 10° NNW 04:02:29 42° W 04:07:25 10° SSW
ERS-2 2.4 03:59:10 10° S 04:02:40 43° W 04:06:12 10° NNW
FALCON 9 DEB 3.5 04:01:05 25° W 04:02:46 52° NNW 04:06:10 10° NE
Cosmos 2016 Rocket 4.0 03:56:49 10° N 04:02:58 89° E 04:09:04 10° S
ATLAS 5 CENTAUR R/B 4.4 04:01:00 10° NNW 04:03:23 13° N 04:05:56 10° NE
ARIANE 5 R/B 4.0 04:00:59 10° NNW 04:04:19 18° WNW 04:05:50 16° W
Cosmos 1743 2.6 04:00:44 10° N 04:04:33 88° W 04:08:21 10° S
Cosmos 2061 Rocket 4.1 03:58:40 10° N 04:05:09 89° WSW 04:11:35 10° S
Cosmos 1814 Rocket 4.0 04:00:41 10° SSW 04:05:54 80° WNW 04:11:14 10° NNE
SL-4 R/B 2.4 04:03:35 20° WSW 04:06:42 70° NNW 04:11:30 10° ENE
Cosmos 1125 Rocket 4.4 04:01:31 10° NNW 04:06:43 52° ENE 04:11:50 10° SE
CZ-2C R/B 4.1 04:04:05 10° NNW 04:07:01 21° WNW 04:08:04 19° W
Cosmos 1000 Rocket 4.4 04:01:04 10° SSW 04:07:13 69° W 04:13:22 10° N
Cosmos 1763 Rocket 4.2 04:04:27 18° WSW 04:07:49 36° WNW 04:12:42 10° N
Cosmos 2333 Rocket 3.3 04:03:18 10° S 04:08:46 47° ESE 04:14:16 10° NE
Cosmos 2150 Rocket 4.2 04:06:33 10° NNW 04:12:03 83° ENE 04:17:26 10° SSE
USA 305 4.3 04:10:25 10° WNW 04:14:12 31° N 04:18:01 10° ENE
Cosmos 2322 4.1 04:08:56 10° SSW 04:14:31 66° ESE 04:20:08 10° NNE
Cosmos 1544 3.1 04:11:14 10° N 04:14:50 83° E 04:18:25 10° S
USA 267 3.7 04:09:23 10° NE 04:15:41 52° NNW 04:21:28 12° W
NOSS 3-4 (A) 4.1 04:10:16 10° NW 04:17:03 50° WSW 04:24:29 10° SSE
NOSS 3-4 (C) 4.1 04:10:22 10° NW 04:17:09 50° WSW 04:24:36 10° SSE
COSMOS 2455 4.4 04:12:02 10° NNW 04:17:39 38° NE 04:23:13 10° ESE
USA 306 4.3 04:14:48 10° WNW 04:18:37 31° N 04:22:26 10° ENE
CZ-4B R/B 1.6 04:19:25 10° S 04:22:27 42° W 04:25:36 10° NNW
Cosmos 1864 Rocket 4.4 04:17:58 10° NNW 04:24:13 76° W 04:30:22 10° S
ADEOS 3.5 04:19:31 10° N 04:24:44 72° WNW 04:29:55 10° SSW
Cosmos 1725 Rocket 3.9 04:18:41 10° NNW 04:24:53 77° W 04:31:02 10° S
Cosmos 540 Rocket 3.8 04:21:17 10° SW 04:26:13 45° WNW 04:31:12 10° N
ADEOS Rocket 3.3 04:20:28 10° S 04:26:48 46° W 04:32:35 10° NNW
Cosmos 1975 3.1 04:23:43 10° N 04:27:45 75° E 04:31:43 10° SSE
IDEFIX/ARIANE 42P 4.3 04:26:08 10° NNW 04:29:06 15° NW 04:32:01 10° W
COSMO-SKYMED 1 2.9 04:25:08 10° SSE 04:29:27 73° ENE 04:33:48 10° N
Cosmos 2333 4.3 04:26:49 10° SSW 04:32:37 89° ESE 04:38:26 10° NNE
Meteor 1-18 Rocket 4.2 04:27:46 10° S 04:33:19 90° ESE 04:38:56 10° NNE
Meteor 1-19 Rocket 4.3 04:28:41 10° S 04:34:10 85° E 04:39:52 10° NNE
FENGYUN 3A 3.6 04:30:33 10° N 04:35:56 73° WNW 04:41:20 10° SSW
Cosmos 2360 Rocket 2.5 04:30:59 10° SW 04:36:29 49° WNW 04:41:59 10° NNE
deb Chang Zheng 4 3.8 04:33:11 10° N 04:37:21 50° WNW 04:41:28 10° SW
SAR-Lupe-4 4.1 04:36:18 10° SSW 04:39:37 35° W 04:42:58 10° NNW
ATLAS 2AS CENTAUR R/B 3.2 04:33:51 10° NW 04:40:41 41° WSW 04:46:59 10° S
Cosmos 1802 Rocket 4.4 04:36:15 10° NNW 04:41:59 41° W 04:47:46 10° SSW
Cosmos 1484 Rocket 3.1 04:38:43 10° N 04:42:36 49° WNW 04:46:27 10° SSW
Cosmos 1782 Rocket 3.7 04:39:40 10° N 04:44:10 88° E 04:48:38 10° S
Cosmos 1908 Rocket 3.8 04:41:11 10° NNW 04:45:31 51° W 04:49:51 10° S
Cosmos 44 Rocket 4.0 04:43:02 10° WSW 04:47:26 37° NW 04:52:00 10° NNE
USA 307 4.2 04:43:51 10° NW 04:47:46 34° NNE 04:51:41 10° ENE
Cosmos 1703 Rocket 3.5 04:43:30 10° SSW 04:47:49 70° W 04:52:11 10° N
Cosmos 1980 Rocket 4.3 04:47:59 10° NW 04:48:34 10° NNW 04:49:09 10° NNW
SJ-12 3.9 04:45:07 10° NNE 04:49:16 83° WNW 04:53:24 10° SSW
Okean 1 3.8 04:46:57 10° SW 04:50:45 39° WNW 04:54:36 10° N
USA 308 4.2 04:47:11 10° NW 04:51:07 35° NNE 04:55:03 10° E
USA 234 4.0 04:46:09 10° S 04:51:49 31° SW 04:57:31 10° WNW
